Regional Weather Roundup
Issued by NWS Glasgow, MT

Home | Current Version | Previous Version | Text Only | Print | Product List | Glossary On
Versions: 1 2 3 4 5 6 7 8 9 10 11 12 13 14 15 16 17 18 19 20 21 22 23 24 25 26 27 28 29 30 31 32 33 34 35 36 37 38 39 40 41 42 43 44 45 46 47 48 49 50
000
ASUS45 KGGW 230115
RWRGGW
HOURLY WEATHER ROUNDUP FOR NORTHEAST MONTANA
NATIONAL WEATHER SERVICE GLASGOW MONTANA
700 PM MDT FRI MAY 22 2015

NOTE: "FAIR" INDICATES FEW OR NO CLOUDS BELOW 12,000 FEET WITH NO
SIGNIFICANT WEATHER AND/OR OBSTRUCTIONS TO VISISBILITY.

NORTHEAST MONTANA


CITY           SKY/WX    TMP DP  RH WIND       PRES   REMARKS
GLASGOW        CLOUDY    71  39  31 SE16      29.96S
WOLF POINT     CLOUDY    73  40  30 SE10      29.97F
JORDAN           N/A     68  42  38 SE18G25   29.94F
WINNETT          N/A     69  44  40 E10         N/A
SIDNEY         MOSUNNY   72  36  26 SE10      30.00S
GLENDIVE       CLOUDY    68  37  32 SE9       30.00S
MALTA            N/A     72  44  36 SE12G22     N/A
SCOBEY           N/A     72  30  21 E17       30.00S
OPHEIM           N/A     66  32  28 SE8       29.82F

FORT PECK REPORTS


CITY           SKY/WX    TMP DP  RH WIND       PRES   REMARKS
FORT PECK        N/A     67  42  40 E18         N/A
THE PINES        N/A     70  39  32 E6G17       N/A

SOUTHEAST MONTANA


CITY           SKY/WX    TMP DP  RH WIND       PRES   REMARKS
BILLINGS       LGT RAIN  63  50  62 E10       29.90R
MILES CITY     CLOUDY    69  43  38 S20       29.95S
BAKER          PTSUNNY   64  42  44 S21G26    30.02S
LIVINGSTON     LGT RAIN  55  46  71 E16G23    29.92R

CENTRAL MONTANA


CITY           SKY/WX    TMP DP  RH WIND       PRES   REMARKS
HAVRE          MOSUNNY   73  45  36 E14       29.91F
LEWISTOWN      CLOUDY    61  44  53 E10G22    29.95S
GREAT FALLS    PTSUNNY   63  46  54 E14       29.92S
CUT BANK       MOSUNNY   69  35  28 E8        29.96S
HELENA         CLOUDY    67  43  41 E9        29.89S
BUTTE          CLOUDY    57  41  55 E12       29.95R
BOZEMAN        CLOUDY    60  46  59 NE9       29.90F

WESTERN MONTANA


CITY           SKY/WX    TMP DP  RH WIND       PRES   REMARKS
MISSOULA       MOSUNNY   74  34  23 N13       29.82S
KALISPELL      NOT AVBL

NORTH DAKOTA


CITY           SKY/WX    TMP DP  RH WIND       PRES   REMARKS
WILLISTON      MOSUNNY   73  34  23 SE13      30.03S
DICKINSON      MOSUNNY   66  33  29 SE17G28   30.04S
MINOT          MOSUNNY   73  32  22 S9        30.06S
BISMARCK       MOSUNNY   71  38  29 S13       30.07S

SOUTHERN SASKATCHEWAN


CITY           SKY/WX    TMP DP  RH WIND       PRES   REMARKS
REGINA         MOSUNNY   70  39  32 SE7       30.03S
ESTEVAN        MOSUNNY   73  34  23 S10       30.05F
SWIFT CURRENT  SUNNY     72  28  20 E14G20    30.00F



USA.gov is the U.S. government's official web portal to all federal, state and local government web resources and services.